Location: Newark
(43.4100°N, 74.9600°W)
Time: 09:27:10
(UTC+00:00)

ISS - Pass Details

Date: 21 September 2019
Orbit: 411 x 421 km, 51.6° (Epoch: 20 October)

Event Time Altitude Azimuth Distance (km) Brightness Sun altitude
Rises 01:31:05 0° 260° (W) 2,337 0.8 -26.8°
Reaches altitude 10° 01:33:17 10° 270° (W) 1,478 -0.3 -27.2°
Enters shadow 01:34:41 21° 285° (WNW) 991 -1.2 -27.4°
